TimeCST,TemperatureF,Dew PointF,Humidity,Sea Level PressureIn,VisibilityMPH,Wind Direction,Wind SpeedMPH,Gust SpeedMPH,PrecipitationIn,Events,Conditions,WindDirDegrees,DateUTC
12:56 AM,27.0,17.1,66,29.94,-9999.0,NNW,11.5,25.3,N/A,,Unknown,340,2013-01-06 06:56:00
1:56 AM,26.1,17.1,69,29.96,-9999.0,NNW,16.1,31.1,N/A,,Unknown,340,2013-01-06 07:56:00
2:56 AM,26.1,17.1,69,29.99,-9999.0,North,11.5,21.9,N/A,,Unknown,350,2013-01-06 08:56:00
3:56 AM,25.0,16.0,69,30.01,-9999.0,NNW,11.5,23.0,N/A,,Unknown,340,2013-01-06 09:56:00
4:56 AM,24.1,15.1,69,30.04,-9999.0,NNW,9.2,20.7,N/A,,Unknown,340,2013-01-06 10:56:00
5:56 AM,21.0,12.0,68,30.07,-9999.0,NNW,10.4,19.6,N/A,,Unknown,340,2013-01-06 11:56:00
6:56 AM,19.9,10.0,65,30.12,-9999.0,Calm,Calm,-,N/A,,Unknown,0,2013-01-06 12:56:00
7:56 AM,18.0,9.0,68,30.14,-9999.0,NE,3.5,-,N/A,,Unknown,40,2013-01-06 13:56:00
8:56 AM,19.9,9.0,62,30.17,-9999.0,Variable,3.5,-,N/A,,Unknown,0,2013-01-06 14:56:00
9:56 AM,21.0,8.1,57,30.19,-9999.0,NNW,8.1,-,N/A,,Unknown,340,2013-01-06 15:56:00
10:56 AM,23.0,7.0,50,30.19,-9999.0,Calm,Calm,-,N/A,,Unknown,0,2013-01-06 16:56:00
11:56 AM,24.1,8.1,51,30.18,-9999.0,ESE,3.5,-,N/A,,Unknown,110,2013-01-06 17:56:00
12:56 PM,25.0,8.1,49,30.17,-9999.0,ESE,3.5,-,N/A,,Unknown,120,2013-01-06 18:56:00
1:56 PM,25.0,10.0,53,30.18,-9999.0,Variable,3.5,-,N/A,,Unknown,0,2013-01-06 19:56:00
2:56 PM,25.0,10.9,55,30.19,-9999.0,SSE,4.6,-,N/A,,Unknown,160,2013-01-06 20:56:00
3:56 PM,24.1,12.9,62,30.19,-9999.0,SSW,4.6,-,N/A,,Unknown,210,2013-01-06 21:56:00
4:56 PM,25.0,15.1,66,30.18,-9999.0,SSW,6.9,-,N/A,,Unknown,210,2013-01-06 22:56:00
5:56 PM,27.0,17.1,66,30.17,-9999.0,SSW,13.8,-,N/A,,Unknown,210,2013-01-06 23:56:00
6:56 PM,28.0,19.0,69,30.14,-9999.0,SSW,13.8,-,N/A,,Unknown,200,2013-01-07 00:56:00
7:56 PM,28.9,19.0,67,30.14,-9999.0,SW,17.3,21.9,N/A,,Unknown,220,2013-01-07 01:56:00
8:56 PM,28.9,19.9,69,30.12,-9999.0,SSW,16.1,-,N/A,,Unknown,210,2013-01-07 02:56:00
9:56 PM,30.0,19.9,66,30.10,-9999.0,SSW,16.1,-,N/A,,Unknown,210,2013-01-07 03:56:00
10:56 PM,30.0,19.9,66,30.07,-9999.0,SSW,16.1,-,N/A,,Unknown,210,2013-01-07 04:56:00
11:56 PM,30.0,19.9,66,30.03,-9999.0,SSW,18.4,-,N/A,,Unknown,210,2013-01-07 05:56:00